Location: Monroe
(41.9160°N, 83.3980°W)
Time: 19:05:33
(UTC-04:00)

ISS - Visible Passes

Search period start: 04 May 2016 00:00
Search period end: 14 May 2016 00:00
Orbit: 402 x 405 km, 51.6° (Epoch: 04 May)

Date Brightness Start Highest point End Pass type
(mag) Time Alt. Az. Time Alt. Az. Time Alt. Az.
07 May -0.6 05:25:49 10° SSE 05:27:16 12° SE 05:28:45 10° ESE visible
09 May -1.8 05:15:44 12° SSW 05:18:19 28° SE 05:21:11 10° ENE visible
10 May -1.1 04:25:17 15° SE 04:25:55 15° SE 04:27:55 10° E visible
11 May -3.2 05:07:21 20° SW 05:09:26 69° SE 05:12:41 10° ENE visible
12 May -2.4 04:16:44 34° SE 04:16:54 35° SE 04:19:55 10° ENE visible
13 May -0.6 03:26:02 14° E 03:26:02 14° E 03:26:48 10° E visible
13 May -2.8 04:58:39 20° WSW 05:00:38 52° NNW 05:03:51 10° NE visible
